Weather History for KCOU - July, 2014

Change the Weather History Date:

Monday, July 7, 2014

  Actual Average Record
Temperature  
Mean Temperature 80 °F 77 °F  
Max Temperature 93 °F 87 °F 106 °F (2012)
Min Temperature 67 °F 67 °F 56 °F (1924)
Degree Days  
Heating Degree Days 0 0  
Month to date heating degree days 0 0  
Since 1 June heating degree days 0 11  
Since 1 July heating degree days 0 0  
Cooling Degree Days 15 12  
Month to date cooling degree days 52 84  
Year to date cooling degree days 499 435  
Since 1 June cooling degree days 339 332  
Growing Degree Days 30 (Base 50)    
Moisture  
Dew Point 71 °F    
Average Humidity 73    
Maximum Humidity 93    
Minimum Humidity 52    
Precipitation  
Precipitation 0.59 in 0.16 in 3.16 in (1993)
Month to date precipitation 0.66 1.06  
Year to date precipitation 20.55 22.08  
Snow  
Snow 0.00 in 0.00 in 0.00 in (2013)
Month to date snowfall 0.0 0.0  
Since 1 June snowfall 0.0 0.0  
Since 1 July snowfall 0.0 0.0  
Snow Depth 0.00 in    
Sea Level Pressure  
Sea Level Pressure 29.82 in    
Wind  
Wind Speed 10 mph (WSW)    
Max Wind Speed 46 mph    
Max Gust Speed 58 mph    
Visibility 9 miles    
Events Rain , Thunderstorm    
T = Trace of Precipitation, MM = Missing Value Source: NWS Daily Summary

Daily Weather History Graph

Daily Weather History Graph

Search for Another Location

Airport or City:

Trip Planner

Search our weather history database for the weather conditions in past years. The results will help you decide how hot, cold, wet, or windy it might be!

Date:

Astronomy

Jul. 07, 2014 Rise Set
Actual Time 5:50 AM CDT 8:36 PM CDT
Civil Twilight 5:19 AM CDT 9:08 PM CDT
Nautical Twilight 4:39 AM CDT 9:47 PM CDT
Astronomical Twilight 3:54 AM CDT 10:32 PM CDT
Moon 3:41 PM CDT (7/7) 1:42 AM CDT (7/7)
Length of Visible Light 15h 49m
Length of Day
14h 45m
Waxing Gibbous, 72% of the Moon is Illuminated
Jul 7
Waxing Gibbous
Jul 12
Full
Jul 18
Last Quarter
Jul 26
New
Aug 3
First Quarter

Hourly Weather History & Observations

Time (CDT) Temp. Heat Index Dew Point Humidity Pressure Visibility Wind Dir Wind Speed Gust Speed Precip Events Conditions
12:54 AM 75.9 °F - 69.1 °F 79% 29.88 in 10.0 mi SSW 10.4 mph - N/A   Mostly Cloudy
1:54 AM 75.0 °F - 70.0 °F 84% 29.83 in 10.0 mi South 12.7 mph - N/A   Partly Cloudy
2:54 AM 75.0 °F - 70.0 °F 84% 29.83 in 10.0 mi SSW 12.7 mph - N/A   Clear
3:54 AM 73.9 °F - 70.0 °F 87% 29.81 in 10.0 mi SSW 12.7 mph - N/A   Clear
4:54 AM 73.0 °F - 70.0 °F 90% 29.80 in 9.0 mi SSW 9.2 mph - N/A   Clear
5:54 AM 72.0 °F - 70.0 °F 93% 29.81 in 8.0 mi SW 6.9 mph - N/A   Clear
6:54 AM 73.9 °F - 71.1 °F 91% 29.82 in 9.0 mi SSW 6.9 mph - N/A   Clear
7:54 AM 78.1 °F - 71.1 °F 79% 29.85 in 10.0 mi SW 9.2 mph - N/A   Clear
8:54 AM 81.0 °F 85.2 °F 72.0 °F 74% 29.84 in 10.0 mi WSW 11.5 mph - N/A   Clear
9:54 AM 84.0 °F 90.2 °F 73.0 °F 69% 29.83 in 10.0 mi SW 11.5 mph - N/A   Clear
10:28 AM 84.0 °F 90.2 °F 73.0 °F 69% 29.86 in 10.0 mi West 11.5 mph - N/A   Mostly Cloudy
10:54 AM 84.9 °F 92.1 °F 73.9 °F 69% 29.83 in 10.0 mi WSW 11.5 mph - N/A   Overcast
11:45 AM 86.0 °F 95.1 °F 75.0 °F 70% 29.86 in 10.0 mi West 9.2 mph - N/A   Partly Cloudy
11:54 AM 87.1 °F 96.3 °F 75.0 °F 67% 29.83 in 10.0 mi West 8.1 mph - N/A   Scattered Clouds
12:54 PM 88.0 °F 97.5 °F 75.0 °F 65% 29.82 in 10.0 mi West 8.1 mph - N/A   Clear
1:54 PM 91.0 °F 101.6 °F 75.0 °F 59% 29.81 in 10.0 mi West 6.9 mph - N/A   Clear
2:54 PM 91.9 °F 99.5 °F 72.0 °F 52% 29.80 in 10.0 mi West 8.1 mph - N/A   Clear
3:54 PM 93.0 °F 101.9 °F 73.0 °F 52% 29.78 in 10.0 mi West 9.2 mph - N/A   Clear
4:54 PM 91.9 °F 100.7 °F 73.0 °F 54% 29.79 in 10.0 mi SW 11.5 mph - N/A   Partly Cloudy
5:54 PM 91.0 °F 99.3 °F 73.0 °F 55% 29.79 in 10.0 mi WSW 11.5 mph - N/A   Partly Cloudy
6:54 PM 89.1 °F 97.0 °F 73.0 °F 59% 29.79 in 10.0 mi SW 11.5 mph - N/A   Scattered Clouds
7:54 PM 84.9 °F 93.3 °F 75.0 °F 72% 29.77 in 10.0 mi SSW 8.1 mph - N/A   Clear
8:54 PM 82.0 °F 87.4 °F 73.0 °F 74% 29.75 in 10.0 mi South 5.8 mph - N/A   Scattered Clouds
9:54 PM 80.1 °F 84.2 °F 73.0 °F 79% 29.75 in 10.0 mi SSE 6.9 mph - N/A   Mostly Cloudy
10:54 PM 82.0 °F 87.4 °F 73.0 °F 74% 29.73 in 10.0 mi South 12.7 mph - N/A   Mostly Cloudy
11:34 PM 82.0 °F 86.7 °F 72.0 °F 71% 29.88 in 10.0 mi NW 38.0 mph 57.5 mph N/A Thunderstorm Unknown
11:37 PM 75.9 °F - 66.9 °F 74% 29.91 in 2.5 mi NW 42.6 mph 57.5 mph 0.00 in Rain , Thunderstorm Light Thunderstorms and Rain
11:40 PM 69.1 °F - 64.9 °F 87% 29.89 in 1.5 mi NW 29.9 mph 57.5 mph 0.00 in Rain , Thunderstorm Heavy Thunderstorms and Rain
11:47 PM 66.9 °F - 64.9 °F 93% 29.87 in 0.8 mi North 25.3 mph 46.0 mph 0.17 in Rain , Thunderstorm Heavy Thunderstorms and Rain
11:50 PM 66.2 °F - 64.4 °F 94% 29.87 in 1.0 mi North 23.0 mph 34.5 mph 0.29 in Rain , Thunderstorm Heavy Thunderstorms and Rain
11:54 PM 66.9 °F - 64.9 °F 93% 29.85 in 1.2 mi NNW 18.4 mph 33.4 mph 0.43 in Rain , Thunderstorm Heavy Thunderstorms and Rain
11:57 PM 66.2 °F - 64.4 °F 94% 29.87 in 2.5 mi NNW 17.3 mph 32.2 mph N/A Rain , Thunderstorm Heavy Thunderstorms and Rain